Time,TemperatureF,DewpointF,PressureIn,WindDirection,WindDirectionDegrees,WindSpeedMPH,WindSpeedGustMPH,Humidity,HourlyPrecipIn,Conditions,Clouds,dailyrainin,SoftwareType,DateUTC
2013-02-16 00:00:00,64.5,63.3,29.92,NW,317,0.0,0.0,96,0.00,RA,OVC,0.00,WeatherDisplay:10.37,2013-02-16 05:00:00,
2013-02-16 00:05:00,64.5,63.3,29.92,NW,317,0.0,0.0,96,0.00,RA,OVC,0.00,WeatherDisplay:10.37,2013-02-16 05:05:00,
2013-02-16 00:10:00,64.5,63.3,29.92,NW,317,0.0,0.0,96,0.00,,OVC,0.00,WeatherDisplay:10.37,2013-02-16 05:10:00,
2013-02-16 00:15:00,64.3,63.1,29.92,NW,317,0.0,0.0,96,0.00,,OVC,0.00,WeatherDisplay:10.37,2013-02-16 05:15:00,
2013-02-16 00:20:00,64.3,63.1,29.92,NW,317,0.0,0.0,96,0.00,,OVC,0.00,WeatherDisplay:10.37,2013-02-16 05:20:00,
2013-02-16 00:23:00,64.5,63.3,29.92,NW,317,0.0,0.0,96,0.00,,OVC,0.00,WeatherDisplay:10.37,2013-02-16 05:23:00,
2013-02-16 00:28:00,64.5,63.3,29.92,NW,317,0.0,0.0,96,0.00,,OVC,0.00,WeatherDisplay:10.37,2013-02-16 05:28:00,
2013-02-16 00:33:00,64.5,63.3,29.92,NW,311,0.0,0.0,96,0.00,,OVC,0.00,WeatherDisplay:10.37,2013-02-16 05:33:00,
2013-02-16 00:38:00,64.5,63.3,29.92,NW,311,0.0,0.0,96,0.00,,OVC,0.00,WeatherDisplay:10.37,2013-02-16 05:38:00,
2013-02-16 00:43:00,64.5,63.3,29.92,NW,311,0.0,0.0,96,0.00,,OVC,0.00,WeatherDisplay:10.37,2013-02-16 05:43:00,
2013-02-16 00:48:00,64.5,63.3,29.92,NW,311,0.0,0.0,96,0.00,,OVC,0.00,WeatherDisplay:10.37,2013-02-16 05:48:00,
2013-02-16 00:53:00,64.5,63.3,29.92,NW,311,0.0,0.0,96,0.00,,OVC,0.00,WeatherDisplay:10.37,2013-02-16 05:53:00,
2013-02-16 00:58:00,64.5,63.3,29.92,NW,311,0.0,0.0,96,0.00,,OVC,0.00,WeatherDisplay:10.37,2013-02-16 05:58:00,
2013-02-16 01:03:00,64.3,63.1,29.91,NW,311,0.0,0.0,96,0.00,,OVC,0.00,WeatherDisplay:10.37,2013-02-16 06:03:00,
2013-02-16 01:08:00,64.3,63.1,29.91,NW,311,0.0,0.0,96,0.00,,OVC,0.00,WeatherDisplay:10.37,2013-02-16 06:08:00,
2013-02-16 01:13:00,64.3,63.1,29.91,NW,311,0.0,0.0,96,0.00,,OVC,0.00,WeatherDisplay:10.37,2013-02-16 06:13:00,
2013-02-16 01:18:00,64.3,63.1,29.91,NW,306,0.0,0.0,96,0.00,,OVC,0.00,WeatherDisplay:10.37,2013-02-16 06:18:00,
2013-02-16 01:23:00,64.3,63.1,29.91,NW,305,0.0,0.0,96,0.00,,OVC,0.00,WeatherDisplay:10.37,2013-02-16 06:23:00,
2013-02-16 01:28:00,64.3,63.1,29.91,WNW,296,0.0,0.0,96,0.00,,OVC,0.00,WeatherDisplay:10.37,2013-02-16 06:28:00,
2013-02-16 01:33:00,64.2,63.0,29.91,WNW,286,0.0,0.0,96,0.00,,OVC,0.00,WeatherDisplay:10.37,2013-02-16 06:33:00,
2013-02-16 01:38:00,64.2,63.0,29.91,WNW,290,0.0,0.0,96,0.00,,OVC,0.00,WeatherDisplay:10.37,2013-02-16 06:38:00,
2013-02-16 01:43:00,64.2,63.0,29.91,WNW,292,0.0,0.0,96,0.00,,OVC,0.00,WeatherDisplay:10.37,2013-02-16 06:43:00,
2013-02-16 01:48:00,64.2,63.0,29.91,WNW,294,0.0,0.0,96,0.00,,OVC,0.00,WeatherDisplay:10.37,2013-02-16 06:48:00,
2013-02-16 01:53:00,64.2,63.0,29.91,WNW,289,0.0,0.0,96,0.00,,OVC,0.00,WeatherDisplay:10.37,2013-02-16 06:53:00,
2013-02-16 01:58:00,64.2,63.0,29.90,WNW,286,0.0,0.0,96,0.00,,OVC,0.00,WeatherDisplay:10.37,2013-02-16 06:58:00,
2013-02-16 02:03:00,64.2,63.0,29.90,WNW,287,0.0,0.0,96,0.00,,OVC,0.00,WeatherDisplay:10.37,2013-02-16 07:03:00,
2013-02-16 02:08:00,64.2,63.0,29.90,WNW,286,0.0,0.0,96,0.00,,OVC,0.00,WeatherDisplay:10.37,2013-02-16 07:08:00,
2013-02-16 02:13:00,64.0,62.8,29.90,WNW,296,0.0,0.0,96,0.00,,OVC,0.00,WeatherDisplay:10.37,2013-02-16 07:13:00,
2013-02-16 02:18:00,64.0,62.8,29.90,WNW,294,0.0,0.0,96,0.00,,OVC,0.00,WeatherDisplay:10.37,2013-02-16 07:18:00,
2013-02-16 02:23:00,63.9,62.7,29.90,WNW,294,0.0,0.0,96,0.00,,OVC,0.00,WeatherDisplay:10.37,2013-02-16 07:23:00,
2013-02-16 02:28:00,63.7,62.5,29.89,WNW,295,0.0,0.0,96,0.00,,OVC,0.00,WeatherDisplay:10.37,2013-02-16 07:28:00,
2013-02-16 02:33:00,63.5,62.3,29.89,WNW,292,0.0,0.0,96,0.00,,OVC,0.00,WeatherDisplay:10.37,2013-02-16 07:33:00,
2013-02-16 02:38:00,63.4,62.2,29.89,WNW,292,0.0,0.0,96,0.00,,OVC,0.00,WeatherDisplay:10.37,2013-02-16 07:38:00,
2013-02-16 02:43:00,63.2,62.0,29.88,WNW,297,0.0,0.0,96,0.00,,OVC,0.00,WeatherDisplay:10.37,2013-02-16 07:43:00,
2013-02-16 02:48:00,63.2,62.0,29.88,WNW,297,0.0,0.0,96,0.00,,OVC,0.00,WeatherDisplay:10.37,2013-02-16 07:48:00,
2013-02-16 02:53:00,63.2,62.0,29.88,WNW,298,0.0,0.0,96,0.00,,OVC,0.00,WeatherDisplay:10.37,2013-02-16 07:53:00,
2013-02-16 02:58:00,63.2,62.0,29.87,WNW,298,0.0,0.0,96,0.00,,OVC,0.00,WeatherDisplay:10.37,2013-02-16 07:58:00,
2013-02-16 03:03:00,63.2,62.0,29.87,WNW,298,0.0,0.0,96,0.00,,OVC,0.00,WeatherDisplay:10.37,2013-02-16 08:03:00,
2013-02-16 03:08:00,63.2,62.0,29.87,WNW,300,0.0,0.0,96,0.00,,OVC,0.00,WeatherDisplay:10.37,2013-02-16 08:08:00,
2013-02-16 03:13:00,63.2,62.0,29.87,WNW,299,0.0,0.0,96,0.00,,OVC,0.00,WeatherDisplay:10.37,2013-02-16 08:13:00,
2013-02-16 03:18:00,63.2,62.0,29.87,WNW,296,0.0,0.0,96,0.01,RA,OVC,0.01,WeatherDisplay:10.37,2013-02-16 08:18:00,
2013-02-16 03:23:00,63.2,62.0,29.87,WNW,296,0.0,0.0,96,0.01,RA,OVC,0.01,WeatherDisplay:10.37,2013-02-16 08:23:00,
2013-02-16 03:28:00,63.2,62.0,29.87,WNW,298,0.0,0.0,96,0.01,,OVC,0.01,WeatherDisplay:10.37,2013-02-16 08:28:00,
2013-02-16 03:33:00,63.2,62.0,29.87,WNW,300,0.0,0.0,96,0.01,,OVC,0.01,WeatherDisplay:10.37,2013-02-16 08:33:00,
2013-02-16 03:38:00,63.2,62.0,29.87,WNW,300,0.0,0.0,96,0.01,,OVC,0.01,WeatherDisplay:10.37,2013-02-16 08:38:00,
2013-02-16 03:43:00,63.2,62.0,29.87,WNW,300,0.0,0.0,96,0.01,,OVC,0.01,WeatherDisplay:10.37,2013-02-16 08:43:00,
2013-02-16 03:48:00,63.1,61.9,29.87,WNW,300,0.0,0.0,96,0.01,,OVC,0.01,WeatherDisplay:10.37,2013-02-16 08:48:00,
2013-02-16 03:53:00,63.1,61.9,29.87,WNW,300,0.0,0.0,96,0.01,,OVC,0.01,WeatherDisplay:10.37,2013-02-16 08:53:00,
2013-02-16 03:58:00,63.1,61.9,29.86,WNW,300,0.0,0.0,96,0.01,,OVC,0.01,WeatherDisplay:10.37,2013-02-16 08:58:00,
2013-02-16 04:03:00,63.1,61.9,29.86,WNW,300,0.0,0.0,96,0.01,,OVC,0.01,WeatherDisplay:10.37,2013-02-16 09:03:00,
2013-02-16 04:08:00,63.1,61.9,29.86,WNW,300,0.0,0.0,96,0.01,,OVC,0.01,WeatherDisplay:10.37,2013-02-16 09:08:00,
2013-02-16 04:13:00,63.1,61.9,29.86,WNW,300,0.0,0.0,96,0.01,,OVC,0.01,WeatherDisplay:10.37,2013-02-16 09:13:00,
2013-02-16 04:19:00,63.1,61.9,29.86,WNW,300,0.0,0.0,96,0.00,,OVC,0.01,WeatherDisplay:10.37,2013-02-16 09:19:00,
2013-02-16 04:23:00,63.1,61.9,29.86,WNW,300,0.0,0.0,96,0.00,,OVC,0.01,WeatherDisplay:10.37,2013-02-16 09:23:00,
2013-02-16 04:29:00,63.1,61.9,29.85,WNW,300,0.0,0.0,96,0.00,,OVC,0.01,WeatherDisplay:10.37,2013-02-16 09:29:00,
2013-02-16 04:34:00,62.9,61.7,29.85,WNW,298,0.0,0.0,96,0.00,,OVC,0.01,WeatherDisplay:10.37,2013-02-16 09:34:00,
2013-02-16 04:39:00,62.9,61.7,29.85,WNW,299,0.0,0.0,96,0.00,,OVC,0.01,WeatherDisplay:10.37,2013-02-16 09:39:00,
2013-02-16 04:44:00,62.7,61.5,29.85,WNW,298,0.0,0.0,96,0.00,,OVC,0.01,WeatherDisplay:10.37,2013-02-16 09:44:00,
2013-02-16 04:49:00,62.7,61.5,29.85,WNW,299,0.0,0.0,96,0.00,,OVC,0.01,WeatherDisplay:10.37,2013-02-16 09:49:00,
2013-02-16 04:54:00,62.6,61.4,29.85,WNW,299,0.0,0.0,96,0.00,,OVC,0.01,WeatherDisplay:10.37,2013-02-16 09:54:00,
2013-02-16 04:59:00,62.6,61.4,29.85,WNW,299,0.0,0.0,96,0.00,,OVC,0.01,WeatherDisplay:10.37,2013-02-16 09:59:00,
2013-02-16 05:04:00,62.6,61.4,29.85,WNW,299,0.0,0.0,96,0.00,,OVC,0.01,WeatherDisplay:10.37,2013-02-16 10:04:00,
2013-02-16 05:09:00,62.6,61.4,29.85,WNW,298,0.0,0.0,96,0.00,,OVC,0.01,WeatherDisplay:10.37,2013-02-16 10:09:00,
2013-02-16 05:14:00,62.6,61.7,29.85,WNW,298,0.0,0.0,97,0.00,,OVC,0.01,WeatherDisplay:10.37,2013-02-16 10:14:00,
2013-02-16 05:19:00,62.6,61.7,29.85,WNW,298,0.0,0.0,97,0.00,,OVC,0.01,WeatherDisplay:10.37,2013-02-16 10:19:00,
2013-02-16 05:24:00,62.6,61.7,29.85,WNW,298,0.0,0.0,97,0.00,,OVC,0.01,WeatherDisplay:10.37,2013-02-16 10:24:00,
2013-02-16 05:29:00,62.6,61.7,29.86,WNW,298,0.0,0.0,97,0.00,,OVC,0.01,WeatherDisplay:10.37,2013-02-16 10:29:00,
2013-02-16 05:34:00,62.6,61.7,29.86,WNW,298,0.0,0.0,97,0.00,,OVC,0.01,WeatherDisplay:10.37,2013-02-16 10:34:00,
2013-02-16 05:39:00,62.6,61.7,29.86,WNW,298,0.0,0.0,97,0.00,,OVC,0.01,WeatherDisplay:10.37,2013-02-16 10:39:00,
2013-02-16 05:44:00,62.6,61.7,29.86,WNW,298,0.0,0.0,97,0.00,,OVC,0.01,WeatherDisplay:10.37,2013-02-16 10:44:00,
2013-02-16 05:49:00,62.7,61.8,29.86,WNW,298,0.0,0.0,97,0.00,,OVC,0.01,WeatherDisplay:10.37,2013-02-16 10:49:00,
2013-02-16 05:54:00,62.7,61.8,29.86,WNW,298,0.0,0.0,97,0.00,,OVC,0.01,WeatherDisplay:10.37,2013-02-16 10:54:00,
2013-02-16 05:59:00,62.7,61.8,29.87,WNW,298,0.0,0.0,97,0.00,,OVC,0.01,WeatherDisplay:10.37,2013-02-16 10:59:00,
2013-02-16 06:04:00,62.7,61.8,29.87,WNW,298,0.0,0.0,97,0.00,,OVC,0.01,WeatherDisplay:10.37,2013-02-16 11:04:00,
2013-02-16 06:09:00,62.7,61.8,29.87,WNW,298,0.0,0.0,97,0.00,,OVC,0.01,WeatherDisplay:10.37,2013-02-16 11:09:00,
2013-02-16 06:14:00,62.9,62.0,29.87,WNW,298,0.0,0.0,97,0.00,,OVC,0.01,WeatherDisplay:10.37,2013-02-16 11:14:00,
2013-02-16 06:19:00,62.9,62.0,29.87,WNW,298,0.0,0.0,97,0.00,,OVC,0.01,WeatherDisplay:10.37,2013-02-16 11:19:00,
2013-02-16 06:24:00,62.9,62.0,29.87,WNW,299,0.0,0.0,97,0.00,,OVC,0.01,WeatherDisplay:10.37,2013-02-16 11:24:00,
2013-02-16 06:29:00,62.9,62.0,29.87,WNW,292,0.0,0.0,97,0.00,,OVC,0.01,WeatherDisplay:10.37,2013-02-16 11:29:00,
2013-02-16 06:34:00,63.1,62.2,29.87,NW,315,0.0,0.0,97,0.00,,OVC,0.01,WeatherDisplay:10.37,2013-02-16 11:34:00,
2013-02-16 06:39:00,63.1,62.2,29.87,WNW,291,0.0,0.0,97,0.00,,OVC,0.01,WeatherDisplay:10.37,2013-02-16 11:39:00,
2013-02-16 06:44:00,63.1,62.2,29.88,WNW,291,0.0,0.0,97,0.00,,OVC,0.01,WeatherDisplay:10.37,2013-02-16 11:44:00,
2013-02-16 06:49:00,63.2,62.3,29.88,WNW,291,0.0,0.0,97,0.00,,OVC,0.01,WeatherDisplay:10.37,2013-02-16 11:49:00,
2013-02-16 06:54:00,63.2,62.3,29.88,WNW,299,0.0,0.0,97,0.00,,OVC,0.01,WeatherDisplay:10.37,2013-02-16 11:54:00,
2013-02-16 06:59:00,63.2,62.3,29.88,WNW,294,0.0,0.0,97,0.00,,OVC,0.01,WeatherDisplay:10.37,2013-02-16 11:59:00,
2013-02-16 07:04:00,63.2,62.3,29.88,WNW,294,0.0,0.0,97,0.00,,OVC,0.01,WeatherDisplay:10.37,2013-02-16 12:04:00,
2013-02-16 07:09:00,63.2,62.3,29.88,WNW,290,0.0,0.0,97,0.00,,OVC,0.01,WeatherDisplay:10.37,2013-02-16 12:09:00,
2013-02-16 07:14:00,63.2,62.3,29.88,WNW,300,0.0,0.0,97,0.00,,OVC,0.01,WeatherDisplay:10.37,2013-02-16 12:14:00,
2013-02-16 07:19:00,63.2,62.3,29.88,WNW,300,0.0,0.0,97,0.00,,OVC,0.01,WeatherDisplay:10.37,2013-02-16 12:19:00,
2013-02-16 07:24:00,63.2,62.3,29.88,WNW,300,0.0,0.0,97,0.00,,OVC,0.01,WeatherDisplay:10.37,2013-02-16 12:24:00,
2013-02-16 07:29:00,63.2,62.3,29.87,WNW,300,0.0,0.0,97,0.00,,OVC,0.01,WeatherDisplay:10.37,2013-02-16 12:29:00,
2013-02-16 07:34:00,63.2,62.3,29.87,WNW,300,0.0,0.0,97,0.00,,OVC,0.01,WeatherDisplay:10.37,2013-02-16 12:34:00,
2013-02-16 07:39:00,63.4,62.5,29.87,WNW,294,0.0,0.0,97,0.00,,OVC,0.01,WeatherDisplay:10.37,2013-02-16 12:39:00,
2013-02-16 07:44:00,63.4,62.5,29.88,WNW,296,0.0,0.0,97,0.00,,OVC,0.01,WeatherDisplay:10.37,2013-02-16 12:44:00,
2013-02-16 07:49:00,63.4,62.5,29.88,WNW,295,0.0,0.0,97,0.00,,OVC,0.01,WeatherDisplay:10.37,2013-02-16 12:49:00,
2013-02-16 07:54:00,63.4,62.5,29.88,WNW,294,0.0,0.0,97,0.00,,OVC,0.01,WeatherDisplay:10.37,2013-02-16 12:54:00,
2013-02-16 07:59:00,63.4,62.5,29.89,WNW,301,0.0,0.0,97,0.00,,OVC,0.01,WeatherDisplay:10.37,2013-02-16 12:59:00,
2013-02-16 08:04:00,63.5,62.6,29.89,WNW,295,0.0,0.0,97,0.00,,OVC,0.01,WeatherDisplay:10.37,2013-02-16 13:04:00,
2013-02-16 08:09:00,63.5,62.6,29.89,WNW,302,0.0,0.0,97,0.00,,OVC,0.01,WeatherDisplay:10.37,2013-02-16 13:09:00,
2013-02-16 08:14:00,63.5,62.6,29.89,WNW,297,0.0,0.0,97,0.00,,OVC,0.01,WeatherDisplay:10.37,2013-02-16 13:14:00,
2013-02-16 08:19:00,63.7,62.8,29.89,NW,319,0.0,0.0,97,0.00,,OVC,0.01,WeatherDisplay:10.37,2013-02-16 13:19:00,
2013-02-16 08:24:00,63.7,62.5,29.89,NW,325,0.0,0.0,96,0.00,,OVC,0.01,WeatherDisplay:10.37,2013-02-16 13:24:00,
2013-02-16 08:29:00,63.7,62.5,29.89,WNW,298,0.0,0.0,96,0.00,,OVC,0.01,WeatherDisplay:10.37,2013-02-16 13:29:00,
2013-02-16 08:34:00,63.7,62.5,29.89,NW,306,0.0,0.9,96,0.00,,OVC,0.01,WeatherDisplay:10.37,2013-02-16 13:34:00,
2013-02-16 08:39:00,63.9,63.0,29.89,NNW,329,9.2,9.2,97,0.00,,OVC,0.01,WeatherDisplay:10.37,2013-02-16 13:39:00,
2013-02-16 08:44:00,63.9,62.7,29.89,NW,315,8.1,8.1,96,0.00,,OVC,0.01,WeatherDisplay:10.37,2013-02-16 13:44:00,
2013-02-16 08:49:00,63.9,62.7,29.89,NNW,329,11.5,11.5,96,0.00,,OVC,0.01,WeatherDisplay:10.37,2013-02-16 13:49:00,
2013-02-16 08:54:00,63.9,62.7,29.89,WNW,292,10.4,10.4,96,0.00,,OVC,0.01,WeatherDisplay:10.37,2013-02-16 13:54:00,
2013-02-16 08:59:00,63.9,62.7,29.89,NW,325,5.8,0.0,96,0.00,,OVC,0.01,WeatherDisplay:10.37,2013-02-16 13:59:00,
2013-02-16 09:04:00,63.9,62.7,29.89,NW,306,11.5,11.5,96,0.00,,OVC,0.01,WeatherDisplay:10.37,2013-02-16 14:04:00,
2013-02-16 09:09:00,63.9,62.7,29.89,NNW,327,18.4,18.4,96,0.00,,OVC,0.01,WeatherDisplay:10.37,2013-02-16 14:09:00,
2013-02-16 09:14:00,64.0,62.8,29.90,NW,312,11.5,11.5,96,0.00,,OVC,0.01,WeatherDisplay:10.37,2013-02-16 14:14:00,
2013-02-16 09:20:00,64.0,62.8,29.90,NW,316,10.4,10.4,96,0.00,,OVC,0.01,WeatherDisplay:10.37,2013-02-16 14:20:00,
2013-02-16 09:25:00,64.2,62.7,29.90,NNW,348,11.5,11.5,95,0.00,,OVC,0.01,WeatherDisplay:10.37,2013-02-16 14:25:00,
2013-02-16 09:30:00,64.3,62.8,29.90,NW,325,15.0,15.0,95,0.00,,OVC,0.01,WeatherDisplay:10.37,2013-02-16 14:30:00,
2013-02-16 09:35:00,64.3,62.8,29.90,WNW,298,10.4,10.4,95,0.00,,OVC,0.01,WeatherDisplay:10.37,2013-02-16 14:35:00,
2013-02-16 09:40:00,64.3,62.5,29.90,WNW,292,10.4,10.4,94,0.00,,OVC,0.01,WeatherDisplay:10.37,2013-02-16 14:40:00,
2013-02-16 09:45:00,64.7,62.9,29.91,NNW,331,8.1,8.1,94,0.00,,OVC,0.01,WeatherDisplay:10.37,2013-02-16 14:45:00,
2013-02-16 09:50:00,65.2,63.4,29.91,WNW,302,13.0,13.0,94,0.00,,OVC,0.01,WeatherDisplay:10.37,2013-02-16 14:50:00,
2013-02-16 09:55:00,65.2,62.8,29.91,WNW,292,10.4,10.4,92,0.00,,OVC,0.01,WeatherDisplay:10.37,2013-02-16 14:55:00,
2013-02-16 10:00:00,65.5,63.1,29.91,WNW,286,12.7,12.7,92,0.00,,OVC,0.01,WeatherDisplay:10.37,2013-02-16 15:00:00,
2013-02-16 10:05:00,65.8,62.8,29.91,NW,314,12.7,12.7,90,0.00,,OVC,0.01,WeatherDisplay:10.37,2013-02-16 15:05:00,
2013-02-16 10:10:00,66.1,62.8,29.91,West,276,7.0,7.0,89,0.00,,OVC,0.01,WeatherDisplay:10.37,2013-02-16 15:10:00,
2013-02-16 10:15:00,66.3,62.6,29.91,WNW,286,4.6,4.6,88,0.00,,OVC,0.01,WeatherDisplay:10.37,2013-02-16 15:15:00,
2013-02-16 10:20:00,66.8,62.5,29.91,West,276,9.2,9.2,86,0.00,,OVC,0.01,WeatherDisplay:10.37,2013-02-16 15:20:00,
2013-02-16 10:25:00,67.1,62.4,29.91,WSW,254,11.5,11.5,85,0.00,,OVC,0.01,WeatherDisplay:10.37,2013-02-16 15:25:00,
2013-02-16 10:30:00,67.6,62.3,29.91,WNW,298,16.1,16.1,83,0.00,,OVC,0.01,WeatherDisplay:10.37,2013-02-16 15:30:00,
2013-02-16 10:35:00,67.8,62.1,29.91,West,268,17.3,17.3,82,0.00,,OVC,0.01,WeatherDisplay:10.37,2013-02-16 15:35:00,
2013-02-16 10:40:00,67.8,61.8,29.91,NNW,329,15.0,15.0,81,0.00,,OVC,0.01,WeatherDisplay:10.37,2013-02-16 15:40:00,
2013-02-16 10:45:00,67.9,62.2,29.91,NW,304,4.0,4.0,82,0.00,,OVC,0.01,WeatherDisplay:10.37,2013-02-16 15:45:00,
2013-02-16 10:50:00,68.1,62.0,29.91,North,349,16.0,16.0,81,0.00,,OVC,0.01,WeatherDisplay:10.37,2013-02-16 15:50:00,
2013-02-16 10:55:00,68.6,62.5,29.91,West,259,1.1,5.4,81,0.00,,OVC,0.01,WeatherDisplay:10.37,2013-02-16 15:55:00,
2013-02-16 11:00:00,68.8,62.0,29.92,NW,304,15.0,0.0,79,0.00,,OVC,0.01,WeatherDisplay:10.37,2013-02-16 16:00:00,
2013-02-16 11:05:00,68.8,62.0,29.92,West,275,19.6,19.6,79,0.00,,OVC,0.01,WeatherDisplay:10.37,2013-02-16 16:05:00,
2013-02-16 11:10:00,68.8,61.7,29.92,NW,325,21.9,21.9,78,0.00,,OVC,0.01,WeatherDisplay:10.37,2013-02-16 16:10:00,
2013-02-16 11:15:00,69.3,62.1,29.92,WNW,294,11.5,11.5,78,0.00,,OVC,0.01,WeatherDisplay:10.37,2013-02-16 16:15:00,
2013-02-16 11:20:00,69.4,62.2,29.92,WSW,254,2.3,3.9,78,0.00,,OVC,0.01,WeatherDisplay:10.37,2013-02-16 16:20:00,
2013-02-16 11:25:00,69.4,61.5,29.92,NW,313,8.1,8.1,76,0.00,,OVC,0.01,WeatherDisplay:10.37,2013-02-16 16:25:00,
2013-02-16 11:30:00,69.8,61.5,29.91,West,275,17.3,17.3,75,0.00,,OVC,0.01,WeatherDisplay:10.37,2013-02-16 16:30:00,
2013-02-16 11:35:00,69.8,61.9,29.91,West,278,12.7,12.7,76,0.00,,OVC,0.01,WeatherDisplay:10.37,2013-02-16 16:35:00,
2013-02-16 11:40:00,69.9,62.0,29.91,WSW,246,5.8,5.8,76,0.00,,OVC,0.01,WeatherDisplay:10.37,2013-02-16 16:40:00,
2013-02-16 11:45:00,70.3,62.4,29.91,West,277,11.5,11.5,76,0.00,,OVC,0.01,WeatherDisplay:10.37,2013-02-16 16:45:00,
2013-02-16 11:50:00,70.6,62.3,29.91,WSW,258,20.7,20.7,75,0.00,,OVC,0.01,WeatherDisplay:10.37,2013-02-16 16:50:00,
2013-02-16 11:55:00,70.4,61.7,29.91,WNW,302,26.5,26.5,74,0.00,,OVC,0.01,WeatherDisplay:10.37,2013-02-16 16:55:00,
2013-02-16 12:00:00,70.8,62.5,29.90,West,277,13.8,13.8,75,0.00,,OVC,0.01,WeatherDisplay:10.37,2013-02-16 17:00:00,
2013-02-16 12:05:00,70.8,61.3,29.90,WNW,284,15.0,15.0,72,0.00,,OVC,0.01,WeatherDisplay:10.37,2013-02-16 17:05:00,
2013-02-16 12:10:00,70.9,61.8,29.90,West,274,20.7,20.7,73,0.00,,OVC,0.01,WeatherDisplay:10.37,2013-02-16 17:10:00,
2013-02-16 12:15:00,71.1,61.2,29.90,SW,232,16.1,16.1,71,0.00,,OVC,0.01,WeatherDisplay:10.37,2013-02-16 17:15:00,
2013-02-16 12:20:00,71.3,61.0,29.90,WNW,285,11.5,11.5,70,0.00,,OVC,0.01,WeatherDisplay:10.37,2013-02-16 17:20:00,
2013-02-16 12:25:00,71.1,60.8,29.90,West,261,18.4,18.4,70,0.00,,OVC,0.01,WeatherDisplay:10.37,2013-02-16 17:25:00,
2013-02-16 12:30:00,71.1,60.0,29.90,NW,308,25.3,25.3,68,0.00,,OVC,0.01,WeatherDisplay:10.37,2013-02-16 17:30:00,
2013-02-16 12:35:00,71.1,60.0,29.90,West,281,33.4,33.4,68,0.00,,OVC,0.01,WeatherDisplay:10.37,2013-02-16 17:35:00,
2013-02-16 12:40:00,70.9,60.2,29.90,NW,311,25.3,25.3,69,0.00,,OVC,0.01,WeatherDisplay:10.37,2013-02-16 17:40:00,
2013-02-16 12:45:00,70.6,59.5,29.89,NW,311,26.5,26.5,68,0.00,,OVC,0.01,WeatherDisplay:10.37,2013-02-16 17:45:00,
2013-02-16 12:50:00,70.8,59.7,29.89,NW,323,11.5,11.5,68,0.00,,OVC,0.01,WeatherDisplay:10.37,2013-02-16 17:50:00,
2013-02-16 12:55:00,71.1,58.7,29.89,WSW,257,20.7,20.7,65,0.00,,OVC,0.01,WeatherDisplay:10.37,2013-02-16 17:55:00,
2013-02-16 13:00:00,71.3,57.6,29.88,WNW,300,17.3,17.3,62,0.00,,OVC,0.01,WeatherDisplay:10.37,2013-02-16 18:00:00,
2013-02-16 13:05:00,71.6,57.0,29.88,West,264,14.0,14.0,60,0.00,,OVC,0.01,WeatherDisplay:10.37,2013-02-16 18:05:00,
2013-02-16 13:10:00,72.0,57.8,29.88,WSW,242,20.7,20.7,61,0.00,,OVC,0.01,WeatherDisplay:10.37,2013-02-16 18:10:00,
2013-02-16 13:15:00,72.7,58.0,29.87,WSW,254,0.0,0.3,60,0.00,,OVC,0.01,WeatherDisplay:10.37,2013-02-16 18:15:00,
2013-02-16 13:20:00,72.8,56.2,29.87,WSW,254,12.7,12.7,56,0.00,,OVC,0.01,WeatherDisplay:10.37,2013-02-16 18:20:00,
2013-02-16 13:25:00,72.8,54.1,29.87,West,269,32.2,32.2,52,0.00,,OVC,0.01,WeatherDisplay:10.37,2013-02-16 18:25:00,
2013-02-16 13:30:00,72.8,54.1,29.87,West,272,34.5,34.5,52,0.00,,OVC,0.01,WeatherDisplay:10.37,2013-02-16 18:30:00,
2013-02-16 13:35:00,72.7,55.6,29.87,West,272,27.6,27.6,55,0.00,,OVC,0.01,WeatherDisplay:10.37,2013-02-16 18:35:00,
2013-02-16 13:40:00,72.5,52.2,29.87,WNW,292,19.6,19.6,49,0.00,,OVC,0.01,WeatherDisplay:10.37,2013-02-16 18:40:00,
2013-02-16 13:45:00,72.7,52.4,29.86,WNW,302,23.0,23.0,49,0.00,,OVC,0.01,WeatherDisplay:10.37,2013-02-16 18:45:00,
2013-02-16 13:50:00,73.2,53.4,29.86,West,265,31.1,31.1,50,0.00,,OVC,0.01,WeatherDisplay:10.37,2013-02-16 18:50:00,
2013-02-16 13:55:00,73.5,50.9,29.86,WNW,292,15.0,15.0,45,0.00,,OVC,0.01,WeatherDisplay:10.37,2013-02-16 18:55:00,
2013-02-16 14:00:00,74.0,52.5,29.86,NW,315,43.7,43.7,47,0.00,,OVC,0.01,WeatherDisplay:10.37,2013-02-16 19:00:00,
2013-02-16 14:05:00,73.3,51.8,29.86,WNW,295,24.0,24.0,47,0.00,,OVC,0.01,WeatherDisplay:10.37,2013-02-16 19:05:00,
2013-02-16 14:10:00,72.7,51.3,29.86,SW,230,35.7,35.7,47,0.00,,OVC,0.01,WeatherDisplay:10.37,2013-02-16 19:10:00,
2013-02-16 14:15:00,72.7,50.1,29.86,WSW,246,34.0,34.0,45,0.00,,OVC,0.01,WeatherDisplay:10.37,2013-02-16 19:15:00,
2013-02-16 14:20:00,72.5,48.7,29.86,WSW,250,29.9,29.9,43,0.00,,OVC,0.01,WeatherDisplay:10.37,2013-02-16 19:20:00,
2013-02-16 14:25:00,72.1,48.4,29.86,NW,304,36.8,36.8,43,0.00,,OVC,0.01,WeatherDisplay:10.37,2013-02-16 19:25:00,
2013-02-16 14:30:00,71.8,49.9,29.86,West,276,43.7,43.7,46,0.00,,OVC,0.01,WeatherDisplay:10.37,2013-02-16 19:30:00,
2013-02-16 14:35:00,71.5,51.3,29.86,WNW,302,11.5,11.5,49,0.00,,OVC,0.01,WeatherDisplay:10.37,2013-02-16 19:35:00,
2013-02-16 14:40:00,71.5,49.6,29.86,WNW,284,25.3,25.3,46,0.00,,OVC,0.01,WeatherDisplay:10.37,2013-02-16 19:40:00,
2013-02-16 14:45:00,71.5,48.4,29.86,SW,221,31.1,31.1,44,0.00,,OVC,0.01,WeatherDisplay:10.37,2013-02-16 19:45:00,
2013-02-16 14:50:00,71.6,46.6,29.86,NNW,336,44.9,44.9,41,0.00,,OVC,0.01,WeatherDisplay:10.37,2013-02-16 19:50:00,
2013-02-16 14:56:00,71.8,46.2,29.86,West,259,38.0,38.0,40,0.00,,OVC,0.01,WeatherDisplay:10.37,2013-02-16 19:56:00,
2013-02-16 15:01:00,72.0,45.7,29.87,NW,313,48.3,48.3,39,0.00,,OVC,0.01,WeatherDisplay:10.37,2013-02-16 20:01:00,
2013-02-16 15:06:00,72.0,46.3,29.87,NW,306,26.5,26.5,40,0.00,,OVC,0.01,WeatherDisplay:10.37,2013-02-16 20:06:00,
2013-02-16 15:11:00,72.1,47.1,29.87,WNW,284,24.2,24.2,41,0.00,,OVC,0.01,WeatherDisplay:10.37,2013-02-16 20:11:00,
2013-02-16 15:16:00,72.1,46.4,29.86,WNW,292,28.8,28.8,40,0.00,,OVC,0.01,WeatherDisplay:10.37,2013-02-16 20:16:00,
2013-02-16 15:21:00,72.5,47.5,29.86,West,271,19.6,19.6,41,0.00,,OVC,0.01,WeatherDisplay:10.37,2013-02-16 20:21:00,
2013-02-16 15:26:00,72.5,45.4,29.86,NW,325,31.0,31.0,38,0.00,,OVC,0.01,WeatherDisplay:10.37,2013-02-16 20:26:00,
2013-02-16 15:31:00,72.0,47.0,29.87,West,271,27.6,27.6,41,0.00,,OVC,0.01,WeatherDisplay:10.37,2013-02-16 20:31:00,
2013-02-16 15:36:00,71.6,46.6,29.87,West,274,40.3,40.3,41,0.00,,OVC,0.01,WeatherDisplay:10.37,2013-02-16 20:36:00,
2013-02-16 15:41:00,71.3,46.4,29.87,West,271,27.6,27.6,41,0.00,,OVC,0.01,WeatherDisplay:10.37,2013-02-16 20:41:00,
2013-02-16 15:46:00,71.5,47.8,29.88,WNW,303,25.0,25.0,43,0.00,,OVC,0.01,WeatherDisplay:10.37,2013-02-16 20:46:00,
2013-02-16 15:51:00,71.5,48.4,29.88,WNW,282,28.8,28.8,44,0.00,,OVC,0.01,WeatherDisplay:10.37,2013-02-16 20:51:00,
2013-02-16 15:56:00,71.5,49.6,29.88,NW,304,40.3,40.3,46,0.00,,OVC,0.01,WeatherDisplay:10.37,2013-02-16 20:56:00,
2013-02-16 16:01:00,70.9,49.1,29.88,WNW,296,33.4,33.4,46,0.00,,OVC,0.01,WeatherDisplay:10.37,2013-02-16 21:01:00,
2013-02-16 16:06:00,70.8,50.1,29.88,NNW,340,21.9,21.9,48,0.00,,OVC,0.01,WeatherDisplay:10.37,2013-02-16 21:06:00,
2013-02-16 16:11:00,70.6,50.0,29.88,WNW,282,36.8,36.8,48,0.00,,OVC,0.01,WeatherDisplay:10.37,2013-02-16 21:11:00,
2013-02-16 16:16:00,70.4,49.8,29.89,WNW,303,31.1,31.1,48,0.00,,OVC,0.01,WeatherDisplay:10.37,2013-02-16 21:16:00,
2013-02-16 16:21:00,70.3,49.7,29.89,WNW,300,18.4,18.4,48,0.00,,OVC,0.01,WeatherDisplay:10.37,2013-02-16 21:21:00,
2013-02-16 16:26:00,69.9,48.7,29.89,West,275,34.5,34.5,47,0.00,,OVC,0.01,WeatherDisplay:10.37,2013-02-16 21:26:00,
2013-02-16 16:31:00,69.3,48.2,29.89,WSW,248,40.3,40.3,47,0.00,,OVC,0.01,WeatherDisplay:10.37,2013-02-16 21:31:00,
2013-02-16 16:36:00,69.1,48.6,29.89,WSW,250,19.6,19.6,48,0.00,,OVC,0.01,WeatherDisplay:10.37,2013-02-16 21:36:00,
2013-02-16 16:41:00,69.3,48.8,29.89,West,272,39.1,39.1,48,0.00,,OVC,0.01,WeatherDisplay:10.37,2013-02-16 21:41:00,
2013-02-16 16:46:00,69.3,48.8,29.90,WNW,287,21.9,21.9,48,0.00,,OVC,0.01,WeatherDisplay:10.37,2013-02-16 21:46:00,
2013-02-16 16:51:00,69.1,49.1,29.90,WNW,284,26.5,26.5,49,0.00,,OVC,0.01,WeatherDisplay:10.37,2013-02-16 21:51:00,
2013-02-16 16:56:00,69.1,49.1,29.90,NW,308,14.0,14.0,49,0.00,,OVC,0.01,WeatherDisplay:10.37,2013-02-16 21:56:00,
2013-02-16 17:01:00,68.9,49.5,29.89,West,278,18.4,18.4,50,0.00,,OVC,0.01,WeatherDisplay:10.37,2013-02-16 22:01:00,
2013-02-16 17:06:00,68.6,49.7,29.89,WSW,249,25.3,25.3,51,0.00,,OVC,0.01,WeatherDisplay:10.37,2013-02-16 22:06:00,
2013-02-16 17:11:00,68.3,48.9,29.89,WNW,297,27.6,27.6,50,0.00,,OVC,0.01,WeatherDisplay:10.37,2013-02-16 22:11:00,
2013-02-16 17:16:00,67.9,48.6,29.90,WSW,257,32.2,32.2,50,0.00,,OVC,0.01,WeatherDisplay:10.37,2013-02-16 22:16:00,
2013-02-16 17:21:00,67.8,47.9,29.90,West,278,25.3,25.3,49,0.00,,OVC,0.01,WeatherDisplay:10.37,2013-02-16 22:21:00,
2013-02-16 17:26:00,67.8,47.9,29.90,WNW,283,44.9,44.9,49,0.00,,OVC,0.01,WeatherDisplay:10.37,2013-02-16 22:26:00,
2013-02-16 17:31:00,67.4,47.0,29.91,West,264,35.7,35.7,48,0.00,,OVC,0.01,WeatherDisplay:10.37,2013-02-16 22:31:00,
2013-02-16 17:36:00,67.3,47.5,29.91,WNW,298,11.5,11.5,49,0.00,,OVC,0.01,WeatherDisplay:10.37,2013-02-16 22:36:00,
2013-02-16 17:41:00,67.1,47.8,29.91,WSW,255,33.4,33.4,50,0.00,,OVC,0.01,WeatherDisplay:10.37,2013-02-16 22:41:00,
2013-02-16 17:46:00,67.1,47.3,29.92,WNW,282,16.1,16.1,49,0.00,,OVC,0.01,WeatherDisplay:10.37,2013-02-16 22:46:00,
2013-02-16 17:51:00,66.8,47.0,29.92,WSW,258,25.3,25.3,49,0.00,,OVC,0.01,WeatherDisplay:10.37,2013-02-16 22:51:00,
2013-02-16 17:56:00,66.6,47.4,29.92,West,277,19.6,19.6,50,0.00,,OVC,0.01,WeatherDisplay:10.37,2013-02-16 22:56:00,
2013-02-16 18:01:00,66.3,47.6,29.92,WNW,288,26.5,26.5,51,0.00,CLR,OVC,0.01,WeatherDisplay:10.37,2013-02-16 23:01:00,
2013-02-16 18:06:00,66.1,48.0,29.92,WNW,303,18.4,18.4,52,0.00,CLR,OVC,0.01,WeatherDisplay:10.37,2013-02-16 23:06:00,
2013-02-16 18:11:00,66.0,48.4,29.92,WSW,258,16.0,16.0,53,0.00,CLR,OVC,0.01,WeatherDisplay:10.37,2013-02-16 23:11:00,
2013-02-16 18:16:00,65.8,48.2,29.92,West,273,16.0,16.0,53,0.00,CLR,OVC,0.01,WeatherDisplay:10.37,2013-02-16 23:16:00,
2013-02-16 18:21:00,65.5,48.4,29.92,WSW,242,20.7,20.7,54,0.00,CLR,OVC,0.01,WeatherDisplay:10.37,2013-02-16 23:21:00,
2013-02-16 18:26:00,65.3,49.2,29.92,West,271,11.5,11.5,56,0.00,CLR,OVC,0.01,WeatherDisplay:10.37,2013-02-16 23:26:00,
2013-02-16 18:31:00,65.2,49.6,29.93,WNW,290,16.1,16.1,57,0.00,CLR,OVC,0.01,WeatherDisplay:10.37,2013-02-16 23:31:00,
2013-02-16 18:36:00,64.8,49.7,29.93,WNW,288,38.0,38.0,58,0.00,CLR,OVC,0.01,WeatherDisplay:10.37,2013-02-16 23:36:00,
2013-02-16 18:41:00,64.7,50.0,29.93,NW,324,34.5,34.5,59,0.00,CLR,OVC,0.01,WeatherDisplay:10.37,2013-02-16 23:41:00,
2013-02-16 18:46:00,64.3,50.1,29.94,NW,306,46.0,46.0,60,0.00,CLR,OVC,0.01,WeatherDisplay:10.37,2013-02-16 23:46:00,
2013-02-16 18:51:00,63.9,50.2,29.94,WNW,294,33.4,33.4,61,0.00,CLR,OVC,0.01,WeatherDisplay:10.37,2013-02-16 23:51:00,
2013-02-16 18:56:00,63.5,49.8,29.94,West,273,26.0,26.0,61,0.00,CLR,OVC,0.01,WeatherDisplay:10.37,2013-02-16 23:56:00,
2013-02-16 19:01:00,63.2,50.0,29.94,WNW,295,19.6,19.6,62,0.00,CLR,OVC,0.01,WeatherDisplay:10.37,2013-02-17 00:01:00,
2013-02-16 19:06:00,62.9,50.1,29.94,WNW,284,19.6,19.6,63,0.00,CLR,OVC,0.01,WeatherDisplay:10.37,2013-02-17 00:06:00,
2013-02-16 19:11:00,62.6,50.2,29.94,NW,317,24.2,24.2,64,0.00,CLR,OVC,0.01,WeatherDisplay:10.37,2013-02-17 00:11:00,
2013-02-16 19:16:00,62.4,50.1,29.95,WNW,286,24.2,24.2,64,0.00,CLR,OVC,0.01,WeatherDisplay:10.37,2013-02-17 00:16:00,
2013-02-16 19:21:00,62.1,50.2,29.95,WNW,302,23.0,23.0,65,0.00,CLR,OVC,0.01,WeatherDisplay:10.37,2013-02-17 00:21:00,
2013-02-16 19:26:00,62.0,50.1,29.95,West,263,14.0,14.0,65,0.00,CLR,OVC,0.01,WeatherDisplay:10.37,2013-02-17 00:26:00,
2013-02-16 19:31:00,61.6,50.1,29.95,WNW,296,19.6,19.6,66,0.00,CLR,OVC,0.01,WeatherDisplay:10.37,2013-02-17 00:31:00,
2013-02-16 19:36:00,61.3,50.2,29.95,West,281,19.6,19.6,67,0.00,CLR,OVC,0.01,WeatherDisplay:10.37,2013-02-17 00:36:00,
2013-02-16 19:41:00,61.2,50.2,29.95,WNW,285,19.6,19.6,67,0.00,CLR,OVC,0.01,WeatherDisplay:10.37,2013-02-17 00:41:00,
2013-02-16 19:46:00,61.0,50.0,29.96,West,270,19.6,19.6,67,0.00,CLR,OVC,0.01,WeatherDisplay:10.37,2013-02-17 00:46:00,
2013-02-16 19:51:00,60.9,49.9,29.96,NW,306,31.1,31.1,67,0.00,CLR,OVC,0.01,WeatherDisplay:10.37,2013-02-17 00:51:00,
2013-02-16 19:56:00,60.7,49.7,29.96,West,272,32.2,32.2,67,0.00,CLR,OVC,0.01,WeatherDisplay:10.37,2013-02-17 00:56:00,
2013-02-16 20:01:00,60.7,49.7,29.98,WSW,255,26.5,26.5,67,0.00,,OVC,0.01,WeatherDisplay:10.37,2013-02-17 01:01:00,
2013-02-16 20:06:00,60.5,49.5,29.98,West,269,26.5,26.5,67,0.00,,OVC,0.01,WeatherDisplay:10.37,2013-02-17 01:06:00,
2013-02-16 20:11:00,60.4,49.0,29.98,WNW,285,34.5,34.5,66,0.00,,OVC,0.01,WeatherDisplay:10.37,2013-02-17 01:11:00,
2013-02-16 20:16:00,60.2,48.8,29.98,NW,308,36.8,36.8,66,0.00,,OVC,0.01,WeatherDisplay:10.37,2013-02-17 01:16:00,
2013-02-16 20:21:00,60.2,48.8,29.98,WNW,286,30.0,30.0,66,0.00,,OVC,0.01,WeatherDisplay:10.37,2013-02-17 01:21:00,
2013-02-16 20:26:00,60.1,48.7,29.98,WNW,284,25.0,25.0,66,0.00,,OVC,0.01,WeatherDisplay:10.37,2013-02-17 01:26:00,
2013-02-16 20:31:00,59.8,48.4,30.00,West,271,27.0,27.0,66,0.00,,OVC,0.01,WeatherDisplay:10.37,2013-02-17 01:31:00,
2013-02-16 20:36:00,59.6,48.2,30.00,WNW,282,25.3,25.3,66,0.00,,OVC,0.01,WeatherDisplay:10.37,2013-02-17 01:36:00,
2013-02-16 20:42:00,59.5,48.1,30.00,WSW,249,33.4,33.4,66,0.00,,OVC,0.01,WeatherDisplay:10.37,2013-02-17 01:42:00,
2013-02-16 20:47:00,59.2,47.8,30.00,WNW,293,27.6,27.6,66,0.00,,OVC,0.01,WeatherDisplay:10.37,2013-02-17 01:47:00,
2013-02-16 20:52:00,59.0,47.7,30.00,West,279,16.1,16.1,66,0.00,,OVC,0.01,WeatherDisplay:10.37,2013-02-17 01:52:00,
2013-02-16 20:57:00,58.9,47.6,30.00,WNW,288,27.6,27.6,66,0.00,,OVC,0.01,WeatherDisplay:10.37,2013-02-17 01:57:00,
2013-02-16 21:02:00,58.7,47.4,30.01,WNW,296,31.1,31.1,66,0.00,CLR,OVC,0.01,WeatherDisplay:10.37,2013-02-17 02:02:00,
2013-02-16 21:07:00,58.4,47.1,30.01,NW,309,43.7,43.7,66,0.00,CLR,OVC,0.01,WeatherDisplay:10.37,2013-02-17 02:07:00,
2013-02-16 21:12:00,58.3,47.0,30.01,WNW,300,28.8,28.8,66,0.00,CLR,OVC,0.01,WeatherDisplay:10.37,2013-02-17 02:12:00,
2013-02-16 21:17:00,58.1,46.8,30.02,NW,315,27.6,27.6,66,0.00,CLR,OVC,0.01,WeatherDisplay:10.37,2013-02-17 02:17:00,
2013-02-16 21:22:00,58.0,47.1,30.02,WSW,255,24.2,24.2,67,0.00,CLR,OVC,0.01,WeatherDisplay:10.37,2013-02-17 02:22:00,
2013-02-16 21:27:00,57.6,46.7,30.02,West,270,16.1,16.1,67,0.00,CLR,OVC,0.01,WeatherDisplay:10.37,2013-02-17 02:27:00,
2013-02-16 21:32:00,57.5,46.6,30.03,NW,306,22.0,22.0,67,0.00,CLR,OVC,0.01,WeatherDisplay:10.37,2013-02-17 02:32:00,
2013-02-16 21:37:00,57.2,46.3,30.03,WNW,288,23.0,23.0,67,0.00,CLR,OVC,0.01,WeatherDisplay:10.37,2013-02-17 02:37:00,
2013-02-16 21:42:00,57.0,46.1,30.03,NW,305,18.4,18.4,67,0.00,CLR,OVC,0.01,WeatherDisplay:10.37,2013-02-17 02:42:00,
2013-02-16 21:47:00,56.9,46.4,30.03,WNW,286,21.9,21.9,68,0.00,CLR,OVC,0.01,WeatherDisplay:10.37,2013-02-17 02:47:00,
2013-02-16 21:52:00,56.7,46.3,30.03,NW,304,18.4,18.4,68,0.00,CLR,OVC,0.01,WeatherDisplay:10.37,2013-02-17 02:52:00,
2013-02-16 21:57:00,56.6,46.2,30.03,NW,314,19.6,19.6,68,0.00,CLR,OVC,0.01,WeatherDisplay:10.37,2013-02-17 02:57:00,
2013-02-16 22:02:00,56.6,46.2,30.03,WNW,295,13.0,13.0,68,0.00,CLR,OVC,0.01,WeatherDisplay:10.37,2013-02-17 03:02:00,
2013-02-16 22:07:00,56.5,46.1,30.03,NW,317,24.2,24.2,68,0.00,CLR,OVC,0.01,WeatherDisplay:10.37,2013-02-17 03:07:00,
2013-02-16 22:12:00,56.3,45.9,30.03,NW,323,28.8,28.8,68,0.00,CLR,OVC,0.01,WeatherDisplay:10.37,2013-02-17 03:12:00,
2013-02-16 22:17:00,56.2,45.8,30.03,NNW,327,18.4,18.4,68,0.00,CLR,OVC,0.01,WeatherDisplay:10.37,2013-02-17 03:17:00,
2013-02-16 22:22:00,56.0,45.6,30.03,WNW,286,19.6,19.6,68,0.00,CLR,OVC,0.01,WeatherDisplay:10.37,2013-02-17 03:22:00,
2013-02-16 22:27:00,56.0,45.6,30.03,WNW,296,23.0,23.0,68,0.00,CLR,OVC,0.01,WeatherDisplay:10.37,2013-02-17 03:27:00,
2013-02-16 22:32:00,55.9,45.9,30.03,NW,304,23.0,23.0,69,0.00,CLR,OVC,0.01,WeatherDisplay:10.37,2013-02-17 03:32:00,
2013-02-16 22:37:00,55.7,45.7,30.03,West,268,20.0,20.0,69,0.00,CLR,OVC,0.01,WeatherDisplay:10.37,2013-02-17 03:37:00,
2013-02-16 22:42:00,55.6,45.6,30.03,West,272,20.7,20.7,69,0.00,CLR,OVC,0.01,WeatherDisplay:10.37,2013-02-17 03:42:00,
2013-02-16 22:47:00,55.4,45.4,30.04,WNW,299,23.0,23.0,69,0.00,CLR,OVC,0.01,WeatherDisplay:10.37,2013-02-17 03:47:00,
2013-02-16 22:52:00,55.4,45.8,30.04,NW,325,19.6,19.6,70,0.00,CLR,OVC,0.01,WeatherDisplay:10.37,2013-02-17 03:52:00,
2013-02-16 22:57:00,55.3,45.7,30.04,NNW,333,19.6,19.6,70,0.00,CLR,OVC,0.01,WeatherDisplay:10.37,2013-02-17 03:57:00,
2013-02-16 23:02:00,55.3,45.7,30.04,NNW,342,28.8,28.8,70,0.00,CLR,OVC,0.01,WeatherDisplay:10.37,2013-02-17 04:02:00,
2013-02-16 23:07:00,55.3,45.7,30.04,NW,310,18.4,18.4,70,0.00,CLR,OVC,0.01,WeatherDisplay:10.37,2013-02-17 04:07:00,
2013-02-16 23:12:00,55.1,45.1,30.04,NW,309,25.3,25.3,69,0.00,CLR,OVC,0.01,WeatherDisplay:10.37,2013-02-17 04:12:00,
2013-02-16 23:17:00,55.1,45.1,30.05,WNW,286,19.6,19.6,69,0.00,CLR,OVC,0.01,WeatherDisplay:10.37,2013-02-17 04:17:00,
2013-02-16 23:22:00,55.0,45.0,30.05,WNW,300,17.3,17.3,69,0.00,CLR,OVC,0.01,WeatherDisplay:10.37,2013-02-17 04:22:00,
2013-02-16 23:27:00,55.0,45.0,30.05,NW,304,26.5,26.5,69,0.00,CLR,OVC,0.01,WeatherDisplay:10.37,2013-02-17 04:27:00,
2013-02-16 23:32:00,54.8,44.8,30.05,WNW,302,19.6,19.6,69,0.00,CLR,OVC,0.01,WeatherDisplay:10.37,2013-02-17 04:32:00,
2013-02-16 23:37:00,54.7,45.1,30.05,West,278,16.1,16.1,70,0.00,CLR,OVC,0.01,WeatherDisplay:10.37,2013-02-17 04:37:00,
2013-02-16 23:42:00,54.5,44.9,30.05,WNW,292,21.9,21.9,70,0.00,CLR,OVC,0.01,WeatherDisplay:10.37,2013-02-17 04:42:00,
2013-02-16 23:47:00,54.5,44.9,30.05,WNW,303,23.0,23.0,70,0.00,CLR,OVC,0.01,WeatherDisplay:10.37,2013-02-17 04:47:00,
2013-02-16 23:52:00,54.5,44.9,30.05,WNW,296,17.3,17.3,70,0.00,CLR,OVC,0.01,WeatherDisplay:10.37,2013-02-17 04:52:00,
2013-02-16 23:57:00,54.4,44.8,30.05,NW,304,16.1,16.1,70,0.00,CLR,OVC,0.01,WeatherDisplay:10.37,2013-02-17 04:57:00,